Alghero, Italy

2:23 PM CEST on July 23, 2017 (GMT +0200)
Fertilia

Weather History for LIEA - December, 2012

Change the Weather History Date:

Saturday, December 15, 2012

  Actual Average Record
Temperature  
Mean Temperature 58 °F -  
Max Temperature 60 °F 56 °F 69 °F (2006)
Min Temperature 57 °F 40 °F 33 °F (2010)
Degree Days  
Heating Degree Days 6    
Growing Degree Days 8 (Base 50)    
Moisture  
Dew Point 57 °F    
Average Humidity 93    
Maximum Humidity 100    
Minimum Humidity 88    
Precipitation  
Precipitation 0.00 in 0.10 in - ()
Sea Level Pressure  
Sea Level Pressure 30.03 in    
Wind  
Wind Speed 16 mph ()    
Max Wind Speed 25 mph    
Max Gust Speed 41 mph    
Visibility 4.7 miles    
Events Rain    
Averages and records for this station are not official NWS values.
T = Trace of Precipitation, MM = Missing Value Source: Averaged Metar Reports

Daily Weather History Graph

Daily Weather History Graph

Search for Another Location

Airport or City:

Trip Planner

Search our weather history database for the weather conditions in past years. The results will help you decide how hot, cold, wet, or windy it might be!

Date:

Astronomy

Dec. 15, 2012 Rise Set
Actual Time 7:43 AM CET 5:00 PM CET
Civil Twilight 7:12 AM CET 5:31 PM CET
Nautical Twilight 6:38 AM CET 6:05 PM CET
Astronomical Twilight 6:05 AM CET 6:39 PM CET
Moon 9:23 AM CET (12/15) 7:45 PM CET (12/15)
Length of Visible Light 10h 18m
Length of Day
9h 16m
Waxing Crescent, 7% of the Moon is Illuminated
Dec 15
Waxing Crescent
Dec 20
First Quarter
Dec 28
Full
Jan 5
Last Quarter
Jan 11
New

Hourly Weather History & Observations

Time (CET) Temp. Dew Point Humidity Pressure Visibility Wind Dir Wind Speed Gust Speed Precip Events Conditions
12:20 AM 57.2 °F 55.4 °F 94% 30.04 in 6.2 mi South 20.7 mph - N/A   Mostly Cloudy
12:50 AM 57.2 °F 55.4 °F 94% 30.01 in 6.2 mi South 21.9 mph 35.7 mph N/A   Mostly Cloudy
1:20 AM 57.2 °F 55.4 °F 94% 30.01 in 6.2 mi South 21.9 mph 33.4 mph N/A   Mostly Cloudy
1:50 AM 57.2 °F 55.4 °F 94% 30.01 in 6.2 mi SSW 23.0 mph - N/A   Mostly Cloudy
2:20 AM 57.2 °F 55.4 °F 94% 30.01 in 6.2 mi South 19.6 mph - N/A   Mostly Cloudy
2:50 AM 57.2 °F 55.4 °F 94% 30.01 in 6.2 mi South 20.7 mph - N/A   Mostly Cloudy
3:20 AM 59.0 °F 55.4 °F 88% 30.01 in 6.2 mi South 20.7 mph 32.2 mph N/A   Mostly Cloudy
3:50 AM 57.2 °F 55.4 °F 94% 30.01 in 6.2 mi South 18.4 mph 31.1 mph N/A Rain Light Rain
4:20 AM 59.0 °F 55.4 °F 88% 30.01 in 6.2 mi SSW 25.3 mph 41.4 mph N/A Rain Light Rain
4:50 AM 57.2 °F 55.4 °F 94% 30.01 in 6.2 mi SSW 16.1 mph - N/A Rain Light Rain
5:20 AM 57.2 °F 55.4 °F 94% 30.01 in 3.1 mi SSW 17.3 mph - N/A Rain Light Rain
5:50 AM 57.2 °F 55.4 °F 94% 30.01 in 3.1 mi SSW 20.7 mph - N/A Rain Rain
6:20 AM 59.0 °F 57.2 °F 94% 30.01 in 3.1 mi SSW 18.4 mph - N/A Rain Rain
6:50 AM 57.2 °F 57.2 °F 100% 30.01 in 3.1 mi SSW 17.3 mph - N/A Rain Light Rain
7:20 AM 57.2 °F 57.2 °F 100% 30.04 in 3.1 mi SW 19.6 mph - N/A Rain Light Rain
7:50 AM 57.2 °F 57.2 °F 100% 30.01 in 3.1 mi SSW 19.6 mph 33.4 mph N/A Rain Light Rain
8:20 AM 57.2 °F 57.2 °F 100% 30.01 in 4.3 mi South 20.7 mph - N/A Rain Light Rain
8:50 AM 57.2 °F 55.4 °F 94% 30.01 in 5.0 mi South 20.7 mph - N/A   Scattered Clouds
9:20 AM 57.2 °F 55.4 °F 94% 30.04 in 6.2 mi South 20.7 mph 32.2 mph N/A   Mostly Cloudy
9:50 AM 59.0 °F 55.4 °F 88% 30.04 in 6.2 mi South 20.7 mph 32.2 mph N/A   Mostly Cloudy
10:20 AM 59.0 °F 55.4 °F 88% 30.04 in 6.2 mi South 20.7 mph - N/A   Mostly Cloudy
10:50 AM 59.0 °F 55.4 °F 88% 30.04 in 6.2 mi SSW 20.7 mph - N/A   Mostly Cloudy
11:20 AM 59.0 °F 55.4 °F 88% 30.04 in 6.2 mi SSW 21.9 mph - N/A   Mostly Cloudy
11:50 AM 59.0 °F 55.4 °F 88% 30.01 in 6.2 mi South 21.9 mph 34.5 mph N/A   Mostly Cloudy
12:20 PM 59.0 °F 57.2 °F 94% 30.04 in 6.2 mi South 19.6 mph - N/A   Mostly Cloudy
12:50 PM 59.0 °F 57.2 °F 94% 30.01 in 6.2 mi South 19.6 mph 31.1 mph N/A   Mostly Cloudy
1:20 PM 60.8 °F 57.2 °F 88% 30.01 in 6.2 mi SW 13.8 mph - N/A   Mostly Cloudy
1:50 PM 60.8 °F 59.0 °F 94% 30.01 in 6.2 mi SSW 18.4 mph - N/A   Mostly Cloudy
2:20 PM 60.8 °F 59.0 °F 94% 30.01 in 6.2 mi SSW 16.1 mph - N/A   Mostly Cloudy
2:50 PM 60.8 °F 57.2 °F 88% 30.01 in 3.1 mi SSW 15.0 mph - N/A   Mostly Cloudy
3:20 PM 60.8 °F 57.2 °F 88% 30.04 in 3.7 mi SSW 13.8 mph - N/A   Mostly Cloudy
3:50 PM 60.8 °F 59.0 °F 94% 30.01 in 3.7 mi SSW 11.5 mph - N/A   Mostly Cloudy
4:20 PM 60.8 °F 57.2 °F 88% 30.04 in 3.7 mi SSW 9.2 mph - N/A   Scattered Clouds
4:50 PM 59.0 °F 57.2 °F 94% 30.04 in 3.7 mi SSW 9.2 mph - N/A   Scattered Clouds
5:20 PM 59.0 °F 57.2 °F 94% 30.04 in 3.7 mi SSW 8.1 mph - N/A   Scattered Clouds
5:50 PM 59.0 °F 57.2 °F 94% 30.04 in 3.7 mi SSW 5.8 mph - N/A   Scattered Clouds
6:20 PM 60.8 °F 59.0 °F 94% 30.04 in 3.7 mi WSW 10.4 mph - N/A   Scattered Clouds
6:50 PM 60.8 °F 59.0 °F 94% 30.04 in 3.1 mi SW 8.1 mph - N/A   Scattered Clouds
7:20 PM 60.8 °F 59.0 °F 94% 30.04 in 2.5 mi SW 5.8 mph - N/A   Scattered Clouds
7:50 PM 60.8 °F 59.0 °F 94% 30.06 in 2.5 mi SW 4.6 mph - N/A   Scattered Clouds
8:20 PM 60.8 °F 59.0 °F 94% 30.06 in 2.5 mi SW 5.8 mph - N/A   Scattered Clouds
8:50 PM 60.8 °F 57.2 °F 88% 30.06 in 2.5 mi SW 3.5 mph - N/A   Scattered Clouds
9:20 PM 60.8 °F 59.0 °F 94% 30.06 in 2.5 mi SW 6.9 mph - N/A   Scattered Clouds
9:50 PM 60.8 °F 59.0 °F 94% 30.06 in 3.1 mi WSW 4.6 mph - N/A   Scattered Clouds
10:20 PM 59.0 °F 57.2 °F 94% 30.06 in 3.1 mi SW 5.8 mph - N/A   Partly Cloudy
10:50 PM 59.0 °F 57.2 °F 94% 30.09 in 5.0 mi WSW 8.1 mph - N/A   Partly Cloudy
11:20 PM 59.0 °F 55.4 °F 88% 30.09 in 6.2 mi WSW 8.1 mph - N/A   Partly Cloudy
11:50 PM 57.2 °F 53.6 °F 88% 30.09 in 6.2 mi WSW 5.8 mph - N/A   Partly Cloudy